This is the latest recevied weather packets stored in our database for station/object 9A3XK-13. If no packets are shown the sender has not sent any weather packets the latest 10 day(s).
| Time | Temp. | Humidity | Pressure | Rain* | Wind** | Luminosity | Snow |
|---|---|---|---|---|---|---|---|
| 1777376417 | 21.67° C | 34% | 1017.4 hPa | 0 mm | - | 735 W/m² | - |
| 1777376117 | 22.22° C | 34% | 1017.4 hPa | 0 mm | - | 800 W/m² | - |
| 1777375217 | 21.67° C | 35% | 1017.6 hPa | 0 mm | - | 798 W/m² | - |
| 1777374917 | 21.67° C | 36% | 1017.6 hPa | 0 mm | - | 708 W/m² | - |
| 1777374617 | 21.67° C | 37% | 1017.7 hPa | 0 mm | - | 664 W/m² | - |
| 1777374317 | 21.67° C | 37% | 1017.7 hPa | 0 mm | - | 635 W/m² | - |
| 1777373717 | 21.67° C | 37% | 1017.7 hPa | 0 mm | - | 784 W/m² | - |
| 1777373417 | 21.67° C | 37% | 1017.8 hPa | 0 mm | - | 857 W/m² | - |
| 1777372517 | 21.67° C | 36% | 1017.9 hPa | 0 mm | - | 789 W/m² | - |
| 1777372216 | 21.67° C | 36% | 1018.1 hPa | 0 mm | - | 744 W/m² | - |
| 1777371916 | 21.11° C | 36% | 1018.1 hPa | 0 mm | - | 802 W/m² | - |
| 1777371616 | 21.11° C | 37% | 1018 hPa | 0 mm | - | 812 W/m² | - |
| 1777371317 | 21.11° C | 36% | 1018.1 hPa | 0 mm | - | 802 W/m² | - |
| 1777371017 | 21.11° C | 37% | 1018.1 hPa | 0 mm | - | 806 W/m² | - |
| 1777370417 | 20.56° C | 37% | 1018.2 hPa | 0 mm | - | 773 W/m² | - |
| 1777370116 | 20.56° C | 38% | 1018.2 hPa | 0 mm | - | 788 W/m² | - |
| 1777369516 | 20.56° C | 37% | 1018.4 hPa | 0 mm | - | 856 W/m² | - |
| 1777369217 | 20° C | 38% | 1018.4 hPa | 0 mm | - | 802 W/m² | - |
| 1777368917 | 20° C | 37% | 1018.5 hPa | 0 mm | - | 817 W/m² | - |
| 1777368616 | 20° C | 39% | 1018.5 hPa | 0 mm | - | 528 W/m² | - |
| 1777368316 | 20° C | 38% | 1018.5 hPa | 0 mm | - | 573 W/m² | - |
| 1777367717 | 20° C | 38% | 1018.5 hPa | 0 mm | - | 911 W/m² | - |
| 1777367417 | 20° C | 38% | 1018.5 hPa | 0 mm | - | 362 W/m² | - |
| 1777367116 | 20° C | 39% | 1018.5 hPa | 0 mm | - | 889 W/m² | - |
| 1777365916 | 19.44° C | 43% | 1018.7 hPa | 0 mm | - | 755 W/m² | - |
* Rain latest hour (hover to see other rain measurements)
** Current wind speed in m/s (hover to see current wind gust speed)